• In Moldova, Republic
  • List of Countries
  • For 7 days
  • Water Temperature
  • Satellite Maps
  • Weather Map
  • Weather Widgets
  • user-avatar
    Login

    Hourly Weather Solden

    Today, 23 January, Monday

    Time Temperature Precipitation Wind Pressure Humidity
    00:00 -16°C° 0 mm 1 mps 576 mmHg 84%
    01:00 -16°C° 0 mm 1 mps 576 mmHg 84%
    02:00 -16°C° 0 mm 1 mps 576 mmHg 83%
    03:00 -17°C° 0 mm 1 mps 576 mmHg 83%
    04:00 -17°C° 0 mm 1 mps 575 mmHg 82%
    05:00 -17°C° 0 mm 1 mps 575 mmHg 83%
    06:00 -17°C° 0 mm 1 mps 575 mmHg 83%
    07:00 -17°C° 0 mm 1 mps 575 mmHg 84%
    08:00 -14°C° 0 mm 1 mps 576 mmHg 80%
    09:00 -12°C° 0 mm 1 mps 578 mmHg 77%
    10:00 -9°C° 0 mm 1 mps 580 mmHg 73%
    11:00 -7°C° 0 mm 1 mps 580 mmHg 74%
    12:00 -6°C° 0 mm 1 mps 581 mmHg 74%
    13:00 -4°C° 0 mm 0 mps 581 mmHg 74%
    14:00 -6°C° 0 mm 0 mps 580 mmHg 77%
    15:00 -8°C° 0 mm 0 mps 579 mmHg 80%
    16:00 -9°C° 0 mm 0 mps 577 mmHg 83%
    17:00 -13°C° 0 mm 0 mps 575 mmHg 85%
    18:00 -16°C° 0 mm 0 mps 573 mmHg 86%
    19:00 -20°C° 0 mm 0 mps 571 mmHg 88%
    20:00 -20°C° 0 mm 0 mps 571 mmHg 88%
    21:00 -20°C° 0 mm 0 mps 571 mmHg 88%
    22:00 -20°C° 0 mm 0 mps 571 mmHg 89%
    23:00 -20°C° 0 mm 0 mps 571 mmHg 88%

    Tomorrow, 24 January, Tuesday

    Time Temperature Precipitation Wind Pressure Humidity
    00:00 -20°C° 0 mm 1 mps 571 mmHg 86%
    01:00 -20°C° 0 mm 1 mps 571 mmHg 85%
    02:00 -20°C° 0 mm 1 mps 571 mmHg 83%
    03:00 -20°C° 0 mm 1 mps 571 mmHg 81%
    04:00 -20°C° 0 mm 1 mps 571 mmHg 78%
    05:00 -19°C° 0 mm 1 mps 571 mmHg 77%
    06:00 -19°C° 0 mm 1 mps 572 mmHg 76%
    07:00 -19°C° 0 mm 1 mps 572 mmHg 75%
    08:00 -15°C° 0 mm 1 mps 574 mmHg 75%
    09:00 -12°C° 0 mm 1 mps 576 mmHg 75%
    10:00 -8°C° 0 mm 1 mps 579 mmHg 75%
    11:00 -7°C° 0 mm 1 mps 579 mmHg 74%
    12:00 -6°C° 0 mm 1 mps 580 mmHg 74%
    13:00 -4°C° 0 mm 0 mps 580 mmHg 74%
    14:00 -6°C° 0 mm 0 mps 580 mmHg 77%
    15:00 -7°C° 0 mm 0 mps 579 mmHg 81%
    16:00 -8°C° 0 mm 0 mps 578 mmHg 84%
    17:00 -11°C° 0 mm 1 mps 577 mmHg 85%
    18:00 -14°C° 0 mm 1 mps 575 mmHg 86%
    19:00 -17°C° 0 mm 1 mps 573 mmHg 87%
    20:00 -18°C° 0 mm 1 mps 573 mmHg 87%
    21:00 -18°C° 0 mm 1 mps 573 mmHg 86%
    22:00 -19°C° 0 mm 1 mps 573 mmHg 86%
    23:00 -19°C° 0 mm 1 mps 573 mmHg 84%

    Day after tomorrow, 25 January, Wednesday

    Time Temperature Precipitation Wind Pressure Humidity
    00:00 -19°C° 0 mm 1 mps 573 mmHg 81%
    01:00 -19°C° 0 mm 1 mps 572 mmHg 79%
    02:00 -19°C° 0 mm 1 mps 572 mmHg 77%
    03:00 -19°C° 0 mm 1 mps 572 mmHg 74%
    04:00 -19°C° 0 mm 1 mps 572 mmHg 72%
    05:00 -19°C° 0 mm 1 mps 573 mmHg 70%
    06:00 -18°C° 0 mm 1 mps 573 mmHg 68%
    07:00 -18°C° 0 mm 1 mps 574 mmHg 66%
    08:00 -15°C° 0 mm 1 mps 576 mmHg 68%
    09:00 -11°C° 0 mm 1 mps 578 mmHg 70%
    10:00 -8°C° 0 mm 1 mps 580 mmHg 72%
    11:00 -7°C° 0 mm 1 mps 581 mmHg 72%
    12:00 -4°C° 0 mm 1 mps 581 mmHg 73%
    13:00 -3°C° 0 mm 1 mps 582 mmHg 73%
    14:00 -4°C° 0 mm 1 mps 581 mmHg 76%
    15:00 -6°C° 0 mm 1 mps 581 mmHg 78%
    16:00 -7°C° 0 mm 1 mps 580 mmHg 81%
    17:00 -9°C° 0 mm 1 mps 579 mmHg 81%
    18:00 -11°C° 0 mm 1 mps 578 mmHg 81%
    19:00 -13°C° 0 mm 1 mps 577 mmHg 81%
    20:00 -14°C° 0 mm 1 mps 577 mmHg 80%
    21:00 -14°C° 0 mm 1 mps 577 mmHg 78%
    22:00 -14°C° 0 mm 1 mps 577 mmHg 77%
    23:00 -14°C° 0 mm 1 mps 577 mmHg 77%

    26 January, Thursday

    Time Temperature Precipitation Wind Pressure Humidity
    00:00 -14°C° 0 mm 1 mps 577 mmHg 76%
    01:00 -15°C° 0 mm 1 mps 577 mmHg 75%
    02:00 -15°C° 0 mm 1 mps 577 mmHg 74%
    03:00 -15°C° 0 mm 1 mps 577 mmHg 74%
    04:00 -15°C° 0 mm 1 mps 577 mmHg 73%
    05:00 -15°C° 0 mm 1 mps 576 mmHg 73%
    06:00 -15°C° 0 mm 1 mps 576 mmHg 72%
    07:00 -16°C° 0 mm 1 mps 576 mmHg 71%
    08:00 -13°C° 0 mm 1 mps 578 mmHg 71%
    09:00 -10°C° 0 mm 1 mps 580 mmHg 71%
    10:00 -7°C° 0 mm 1 mps 582 mmHg 71%
    11:00 -6°C° 0 mm 1 mps 582 mmHg 72%
    12:00 -3°C° 0 mm 1 mps 583 mmHg 73%
    13:00 -2°C° 0 mm 1 mps 583 mmHg 74%
    14:00 -3°C° 0 mm 1 mps 583 mmHg 76%
    15:00 -4°C° 0 mm 1 mps 582 mmHg 79%
    16:00 -6°C° 0 mm 1 mps 581 mmHg 81%
    17:00 -9°C° 0 mm 1 mps 580 mmHg 82%
    18:00 -11°C° 0 mm 1 mps 579 mmHg 83%
    19:00 -13°C° 0 mm 1 mps 578 mmHg 84%
    20:00 -13°C° 0 mm 1 mps 578 mmHg 83%
    21:00 -14°C° 0 mm 1 mps 578 mmHg 82%
    22:00 -14°C° 0 mm 1 mps 578 mmHg 81%
    23:00 -14°C° 0 mm 1 mps 578 mmHg 80%

    27 January, Friday

    Time Temperature Precipitation Wind Pressure Humidity
    00:00 -14°C° 0 mm 1 mps 578 mmHg 80%
    01:00 -14°C° 0 mm 1 mps 578 mmHg 80%
    02:00 -14°C° 0 mm 1 mps 578 mmHg 80%
    03:00 -14°C° 0 mm 1 mps 578 mmHg 81%
    04:00 -14°C° 0 mm 1 mps 578 mmHg 81%
    05:00 -14°C° 0 mm 1 mps 577 mmHg 81%
    06:00 -15°C° 0 mm 1 mps 577 mmHg 81%
    07:00 -15°C° 0 mm 1 mps 577 mmHg 81%
    08:00 -12°C° 0 mm 1 mps 579 mmHg 79%
    09:00 -10°C° 0 mm 1 mps 581 mmHg 78%
    10:00 -7°C° 0 mm 1 mps 582 mmHg 76%
    11:00 -6°C° 0 mm 1 mps 583 mmHg 76%
    12:00 -4°C° 0 mm 1 mps 583 mmHg 76%
    13:00 -3°C° 0 mm 1 mps 584 mmHg 77%
    14:00 -3°C° 0 mm 1 mps 583 mmHg 79%
    15:00 -4°C° 0 mm 1 mps 583 mmHg 81%
    16:00 -6°C° 0 mm 1 mps 583 mmHg 84%
    17:00 -9°C° 0 mm 1 mps 581 mmHg 85%
    18:00 -11°C° 0 mm 1 mps 580 mmHg 86%
    19:00 -14°C° 0 mm 1 mps 579 mmHg 87%
    20:00 -14°C° 0 mm 1 mps 579 mmHg 86%
    21:00 -14°C° 0 mm 1 mps 579 mmHg 85%
    22:00 -14°C° 0 mm 1 mps 579 mmHg 85%
    23:00 -15°C° 0 mm 1 mps 579 mmHg 84%

    28 January, Saturday

    Time Temperature Precipitation Wind Pressure Humidity
    00:00 -15°C° 0 mm 1 mps 578 mmHg 83%
    01:00 -16°C° 0 mm 1 mps 578 mmHg 82%
    02:00 -16°C° 0 mm 1 mps 578 mmHg 80%
    03:00 -16°C° 0 mm 1 mps 577 mmHg 79%
    04:00 -17°C° 0 mm 1 mps 577 mmHg 77%
    05:00 -16°C° 0 mm 1 mps 578 mmHg 77%
    06:00 -15°C° 0 mm 1 mps 578 mmHg 77%
    07:00 -15°C° 0 mm 1 mps 579 mmHg 78%
    08:00 -12°C° 0 mm 1 mps 581 mmHg 77%
    09:00 -9°C° 0 mm 1 mps 583 mmHg 77%
    10:00 -6°C° 0 mm 1 mps 585 mmHg 77%
    11:00 -4°C° 0 mm 1 mps 586 mmHg 77%
    12:00 -3°C° 0 mm 1 mps 586 mmHg 76%
    13:00 -1°C° 0 mm 1 mps 587 mmHg 76%
    14:00 -2°C° 0 mm 1 mps 586 mmHg 79%
    15:00 -3°C° 0 mm 1 mps 586 mmHg 81%
    16:00 -4°C° 0 mm 1 mps 585 mmHg 84%
    17:00 -7°C° 0 mm 1 mps 584 mmHg 85%
    18:00 -10°C° 0 mm 1 mps 583 mmHg 86%
    19:00 -12°C° 0 mm 1 mps 582 mmHg 87%
    20:00 -13°C° 0 mm 1 mps 582 mmHg 85%
    21:00 -13°C° 0 mm 1 mps 582 mmHg 83%
    22:00 -13°C° 0 mm 1 mps 582 mmHg 81%
    23:00 -13°C° 0 mm 1 mps 582 mmHg 80%
    Show more